Probability
10 10 9 8 7 6 5 6 6 5 4 3 3 4 4 3 2 2 1 1 0 0 0 0 0 0 0 0 0 0 0 0 0 0 0 0 0 0
10 11 10 8 6 5 4 5 7 6 4 3 3 3 3 3 3 3 3 2 1 0 0 0 0 0 0 0 0 0 0 0 0 0 0 0 0 0
12 11 10 8 7 5 4 5 7 7 5 4 4 4 3 4 4 5 5 4 3 2 1 0 0 0 0 0 0 0 0 0 0 0 0 0 0 0
14 13 11 10 9 7 5 7 9 9 8 6 5 6 6 5 5 4 4 4 3 2 2 1 0 0 0 0 0 0 0 0 0 0 0 0 0 0
17 16 15 14 13 10 8 9 10 9 9 8 8 8 8 6 5 4 2 2 2 1 2 2 1 0 0 0 0 0 0 0 0 0 0 0 0 0
19 18 17 15 13 11 10 11 10 9 9 9 9 9 9 7 5 4 2 1 1 1 1 2 2 1 1 0 0 0 0 0 0 0 0 0 0 0
19 18 16 13 11 10 9 9 9 9 9 8 7 8 8 7 6 4 2 1 1 2 2 2 3 3 3 2 1 0 0 0 0 0 0 0 0 0
21 19 14 10 9 8 7 6 6 6 7 7 7 7 8 8 8 7 5 3 2 2 2 2 2 4 5 5 4 1 0 0 0 0 0 0 0 0
24 22 16 12 11 10 7 5 3 3 4 6 7 8 9 11 12 10 7 5 3 2 2 2 2 4 6 6 5 1 0 0 0 0 0 0 0 0
25 24 20 17 13 11 11 9 8 5 3 3 5 7 8 11 12 10 8 6 5 4 5 4 4 6 7 6 4 2 0 0 0 0 0 0 0 0
24 21 19 17 12 10 12 15 15 12 7 3 3 4 5 6 7 7 8 8 8 8 9 9 8 8 8 8 7 4 1 0 0 0 0 0 0 0
23 19 14 11 9 7 11 16 17 16 12 8 6 5 5 5 5 7 9 11 11 12 13 13 11 10 10 10 10 9 5 2 1 0 0 0 0 0
24 21 14 8 5 4 9 14 14 13 13 12 10 9 9 8 8 9 12 13 14 14 14 14 13 12 10 9 10 10 8 5 3 2 1 1 0 0
23 20 15 8 3 1 4 8 8 9 12 13 11 11 11 11 10 11 12 14 14 14 14 14 14 13 11 8 8 8 8 7 7 6 4 3 1 0
16 14 10 6 2 1 2 2 3 7 11 12 12 11 11 11 10 10 11 12 12 12 12 12 13 12 11 9 8 8 8 8 10 10 7 4 2 1
10 9 8 5 4 4 4 3 4 7 10 11 11 10 10 10 10 10 11 11 11 11 11 11 12 12 12 10 9 8 8 9 10 11 9 6 4 3
11 12 12 10 9 9 9 8 7 8 9 9 9 9 9 9 10 11 12 12 12 11 11 11 11 11 11 11 9 8 8 8 10 11 9 7 7 5
10 13 15 14 14 15 14 12 10 9 9 8 8 9 10 10 10 11 12 12 11 11 11 11 11 10 10 10 9 8 8 9 10 9 8 7 7 6
8 11 13 13 16 17 16 14 13 11 10 8 8 9 10 10 9 9 10 9 8 8 9 10 10 10 10 10 9 9 9 9 9 7 5 5 5 5
9 10 11 12 15 16 14 14 14 14 13 10 9 10 9 7 6 7 7 6 5 5 6 8 9 9 9 9 10 9 8 9 8 6 5 5 4 4
8 10 10 11 13 14 13 13 15 15 15 13 11 10 8 5 4 4 4 4 3 3 4 5 6 7 8 8 8 8 7 6 6 5 5 5 4 3
6 7 8 9 10 11 13 13 14 15 15 13 11 9 7 5 4 3 3 3 3 3 3 3 4 5 6 6 5 4 3 3 3 2 2 3 3 2
4 5 6 6 7 9 11 12 12 14 14 12 10 8 6 5 5 4 3 3 3 2 2 3 4 4 4 4 4 2 1 1 1 1 1 1 1 1
Wind_Speed
1 1 1 1 1 1 1 1 2 2 2 2 2 2 2 3 5 3 3 6 6 6 6 5 5 4 4 5 5 5 5 5 6 6 6 6 6 5
1 1 1 1 1 1 1 1 1 2 2 2 2 2 3 4 5 3 4 6 6 6 6 6 5 5 5 5 5 5 5 6 6 7 6 6 6 5
1 1 1 1 0 0 1 1 1 2 3 2 2 3 3 3 3 3 4 3 4 6 7 6 6 5 5 5 5 5 5 6 6 6 6 6 6 5
1 0 1 1 1 0 0 0 1 2 3 3 3 3 3 3 3 2 3 3 3 6 7 6 6 5 5 5 5 4 4 4 4 5 5 5 5 5
1 1 1 1 1 1 1 1 1 1 3 3 3 2 2 2 2 1 2 2 3 5 6 5 5 5 5 5 5 4 4 3 3 3 3 3 3 3
1 1 1 2 2 2 2 2 1 2 2 3 3 3 2 2 2 1 1 1 2 3 3 4 5 5 5 6 5 5 4 3 3 2 2 2 2 2
2 1 2 3 3 2 1 1 2 2 3 3 3 2 2 2 2 2 2 2 2 2 2 2 3 3 3 4 5 5 5 4 3 3 2 2 2 1
2 2 3 3 4 4 4 3 2 2 2 2 3 3 3 2 2 2 1 1 1 2 2 2 3 3 3 3 5 6 6 5 5 4 3 3 2 1
2 2 2 3 4 4 4 3 2 2 2 2 3 3 3 3 3 2 2 2 1 2 2 2 2 2 3 4 7 8 7 7 6 5 5 4 3 2
2 3 3 2 2 3 3 3 3 1 2 2 2 2 2 2 2 3 3 2 2 1 2 2 2 2 2 3 7 7 8 8 7 6 6 5 4 3
2 2 3 3 3 3 3 3 3 2 2 3 4 3 3 3 2 1 1 2 2 2 1 1 1 1 1 2 4 8 8 8 7 7 6 5 4 3
2 2 2 3 4 3 3 4 4 3 3 3 2 2 3 4 5 3 2 2 2 2 1 1 1 1 1 1 2 4 4 6 7 7 6 6 5 3
3 3 2 5 4 4 3 3 4 3 3 3 3 3 3 3 3 3 3 2 2 1 1 1 1 1 1 1 2 3 4 3 4 4 6 7 6 5
2 2 3 5 5 5 4 4 4 3 2 3 3 3 3 3 3 3 3 3 2 2 2 1 1 2 2 1 1 2 3 3 4 3 4 5 6 6
1 2 4 4 5 4 5 5 4 3 3 3 3 3 3 3 3 3 3 3 2 2 2 2 2 1 2 2 2 1 2 2 3 3 4 4 4 4
2 2 4 5 4 3 4 4 4 4 4 3 3 2 2 2 3 3 3 3 2 2 2 2 2 2 2 2 2 1 2 2 3 3 3 3 3 4
3 3 3 4 4 4 4 4 4 4 4 3 3 2 3 3 3 2 2 3 3 3 3 3 3 2 3 2 2 2 2 2 2 3 2 3 4 5
5 5 5 5 6 5 5 5 5 4 4 3 3 3 3 3 3 3 3 3 3 3 3 3 3 2 2 3 3 3 3 3 2 3 2 3 4 4
5 5 5 5 5 5 4 4 4 4 3 4 4 4 3 3 3 3 3 3 3 3 3 3 3 3 3 4 4 4 3 2 1 2 3 3 4 4
6 5 5 5 4 4 4 4 4 4 4 4 4 4 4 3 3 3 3 4 4 3 3 3 3 4 4 4 2 3 5 3 2 3 3 2 2 2
6 5 5 4 3 3 3 3 3 4 4 4 4 4 4 3 3 3 4 4 4 3 4 4 4 6 3 2 2 3 3 6 4 3 3 2 2 2
5 5 4 3 3 3 3 3 3 3 4 4 4 4 4 4 4 5 4 4 4 3 4 3 3 3 3 3 4 3 3 3 4 5 4 3 2 3
4 4 3 3 3 3 3 3 4 3 3 3 3 3 4 4 4 4 4 4 3 3 3 3 3 3 3 3 3 3 3 3 2 2 3 4 5 5
Wind_Direction
210 211 207 204 148 144 135 149 154 157 154 140 113 116 115 107 128 128 117 118 121 117 113 111 106 97 89 84 80 79 76 71 71 70 70 73 75 74
166 162 222 162 138 126 121 154 138 136 138 138 133 136 132 128 132 130 127 126 126 128 124 119 113 109 104 100 97 94 90 85 79 77 75 74 75 74
180 171 178 150 98 122 158 160 138 129 137 129 121 128 122 122 134 142 148 141 134 138 135 132 129 126 120 113 106 100 97 92 86 82 79 75 72 71
134 132 192 167 156 216 174 106 137 147 143 144 138 145 145 145 148 152 144 133 138 139 141 141 142 141 135 127 118 111 105 100 96 91 84 81 76 71
156 175 197 178 188 201 178 165 186 152 140 148 151 150 152 146 142 153 128 123 138 143 145 146 151 148 143 134 129 124 117 110 104 102 98 91 79 67
144 141 181 178 182 194 176 169 164 145 142 143 147 155 151 148 153 162 147 158 151 152 136 141 148 142 143 141 141 140 141 139 134 127 118 107 96 79
135 122 100 101 94 103 138 131 152 157 159 150 155 150 150 164 189 197 184 180 167 146 148 160 151 148 157 169 169 168 167 164 160 163 164 150 133 117
154 140 137 123 119 121 114 101 121 165 166 158 161 170 174 183 183 194 178 170 189 182 172 192 173 174 176 176 180 180 182 179 181 184 186 179 172 173
167 165 185 150 145 140 135 133 116 135 165 169 167 180 183 185 182 196 190 196 217 196 188 211 180 183 182 174 173 181 187 188 192 195 194 191 192 204
177 166 161 162 157 143 165 152 149 149 170 169 157 178 170 178 199 207 203 204 217 202 179 219 201 196 180 165 178 182 192 197 197 199 201 202 201 203
191 176 175 167 159 160 168 156 152 147 105 111 132 148 159 166 173 175 204 204 232 224 206 217 212 187 170 169 190 195 197 201 202 202 204 207 209 207
182 171 151 156 160 173 182 175 181 174 151 138 138 167 185 188 189 187 204 220 232 225 207 214 222 184 203 191 182 189 204 213 211 214 217 216 203 199
195 184 166 163 171 186 195 193 193 181 176 175 183 194 198 190 188 191 198 206 222 235 205 198 233 218 209 206 194 190 191 192 197 214 218 220 209 202
194 167 153 168 182 192 200 201 191 193 202 204 202 197 199 192 188 186 188 196 203 214 215 188 228 231 242 245 231 198 200 194 184 193 199 202 209 216
207 172 164 174 177 190 208 208 204 214 215 215 212 200 193 189 178 181 192 204 217 226 210 194 214 230 229 240 233 209 212 216 190 189 197 195 195 198
199 175 180 192 197 195 193 207 217 225 222 222 209 190 176 181 193 187 194 197 203 219 212 200 204 218 239 250 237 232 209 212 206 204 197 201 201 200
174 196 204 193 198 202 204 208 213 217 222 225 210 198 196 193 201 196 192 200 209 211 207 208 204 208 223 235 254 244 225 224 212 203 207 219 214 204
182 203 211 212 210 207 205 207 211 214 216 211 207 202 209 203 198 199 199 208 213 219 215 206 201 211 241 244 227 245 238 231 217 207 220 231 234 217
198 218 217 218 217 213 208 206 209 207 211 214 213 212 211 212 202 203 208 214 219 223 218 202 193 206 232 249 243 223 230 241 228 230 233 236 233 225
217 227 229 220 215 216 212 208 207 206 210 216 213 214 214 216 218 213 216 221 223 221 218 207 200 208 224 239 241 235 214 220 227 244 248 238 231 233
223 227 231 226 219 217 213 211 212 211 212 216 214 216 217 214 221 222 221 229 231 222 220 223 217 204 207 220 247 237 211 207 213 223 238 242 236 224
225 226 230 229 221 213 208 208 215 213 211 212 216 221 221 222 225 226 228 224 225 225 228 221 200 192 199 221 243 247 228 205 228 242 248 232 222 226
225 219 217 225 223 222 212 210 215 219 217 216 215 222 225 229 234 232 228 227 226 229 232 224 208 206 216 226 239 248 245 221 206 217 250 249 244 247